Location: Hanover
(52.3667°N, 9.7167°E)
Time: 05:03:26
(UTC+02:00)

ARIANE 6 FM1 Upper Stage - Pass Details

Date: 20 September 2024
Orbit: 564 x 594 km, 62.0° (Epoch: 06 October)

Event Time Altitude Azimuth Distance (km) Brightness Sun altitude
Rises 20:15:15 0° 172° (S) 2,774 6.0 -8.7°
Reaches altitude 10° 20:18:27 10° 146° (SE) 1,890 4.9 -9.2°
Maximum altitude 20:20:35 14° 116° (ESE) 1,672 4.4 -9.5°
Enters shadow 20:21:23 13° 104° (ESE) 1,710 4.4 -9.6°
